Retour au catalogue

KUIPER-00222

ActifCommunicationsLEO
NORAD 67782·PAYLOAD·🇺🇸 United States

Lancé Feb 12, 2026 depuis Guiana Space Centre

Loading…

Prochains Passages (prochaines 24 heures)

TLE

FraisSource: CelesTrak SupGP

Époque: Sep 14, 2026, 20:55 UTC

1 67782C 26030U   26257.87187500  .00003937  00000+0  51542-3 0  2577
2 67782  51.8972  84.1829 0001007 113.8237 181.8567 14.79921362    10

Suivez KUIPER-00222 en temps réel avec AllMySat

Download on the App Store